"2009-02-20 00:00:00",645467,11.45,319.9,3.231,0.521,7.07,101.5176,3.172,4.344,21.68,0,109.9,13.4,3.93,281.9
"2009-02-20 00:00:30",645468,10.51,318.4,2.561,0.88,7.013,101.5255,3.192,4.346,21.53,0,109.9,13.4,3.96,280.4
"2009-02-20 00:01:00",645469,11.5,321.2,3.63,0.691,6.97,101.5284,3.199,4.348,21.65,0,109.9,13.4,3.96,283.2
"2009-02-20 00:01:30",645470,11.13,321,3.096,0.867,7.08,101.5179,3.172,4.36,21.75,0,109.9,13.4,3.94,283.0
"2009-02-20 00:02:00",645471,10.86,320.9,2.647,0.754,7.28,101.5171,3.17,4.356,21.7,0,109.9,13.4,3.93,282.9
"2009-02-20 00:02:30",645472,10.83,320.4,2.268,0.833,7.09,101.518,3.173,4.362,21.65,0,109.9,13.4,3.94,282.4
"2009-02-20 00:03:00",645473,10.94,320.5,2.91,0.697,7.059,101.5177,3.172,4.368,21.63,0,109.9,13.4,3.94,282.5
"2009-02-20 00:03:30",645474,10.99,320.8,3.799,0.685,7.189,101.5183,3.173,4.344,21.69,0,109.9,13.4,3.94,282.8
"2009-02-20 00:04:00",645475,10.66,321.9,2.785,0.757,7.332,101.5197,3.177,4.373,21.64,0,109.9,13.4,3.94,283.9
"2009-02-20 00:04:30",645476,10.77,322.6,3.252,0.88,7.128,101.5226,3.184,4.379,21.63,0,109.9,13.4,3.95,284.6
"2009-02-20 00:05:00",645477,11.01,323.4,2.67,0.927,7.025,101.524,3.188,4.368,21.67,0,109.9,13.41,3.95,285.4
"2009-02-20 00:05:30",645478,11.36,323.5,3.109,0.753,7.03,101.522,3.183,4.359,21.72,0,109.9,13.41,3.95,285.5
"2009-02-20 00:06:00",645479,11.88,321.9,2.921,0.727,7.252,101.5228,3.185,4.359,21.77,0,109.9,13.41,3.95,283.9
"2009-02-20 00:06:30",645480,11.58,323.2,3.939,0.746,7.252,101.524,3.188,4.363,21.72,0,109.9,13.41,3.95,285.2
"2009-02-20 00:07:00",645481,11.77,325.2,3.51,0.922,7.237,101.52,3.178,4.359,21.74,0,109.9,13.41,3.94,287.2
"2009-02-20 00:07:30",645482,12.73,322.4,3.732,0.776,7.27,101.509,3.15,4.349,21.87,0,109.9,13.41,3.91,284.4
"2009-02-20 00:08:00",645483,12.37,321.2,3.462,0.812,7.587,101.4921,3.107,4.352,21.86,0,109.9,13.41,3.87,283.2
"2009-02-20 00:08:30",645484,12.77,324.2,3.138,0.86,7.495,101.4915,3.105,4.323,21.85,0,109.9,13.41,3.87,286.2
"2009-02-20 00:09:00",645485,13.03,322.2,3.735,0.687,7.565,101.491,3.104,4.315,21.9,0,109.9,13.41,3.87,284.2
"2009-02-20 00:09:30",645486,12.92,323.9,3.113,0.864,7.618,101.4743,3.061,4.308,22.23,0,109.9,13.41,3.82,285.9
"2009-02-20 00:10:00",645487,12.6,326,2.932,0.786,7.962,101.4593,3.023,4.29,21.92,0,109.9,13.41,3.79,288.0
"2009-02-20 00:10:30",645488,11.96,326.2,2.49,0.809,7.859,101.4576,3.019,4.262,21.64,0,109.9,13.41,3.78,288.2
"2009-02-20 00:11:00",645489,11.9,326.6,3.074,0.8,7.814,101.4607,3.027,4.272,21.62,0,109.9,13.42,3.79,288.6
"2009-02-20 00:11:30",645490,12.32,325.9,2.783,0.877,7.678,101.4661,3.04,4.259,21.67,0,109.9,13.42,3.80,287.9
"2009-02-20 00:12:00",645491,11.9,325.2,3.696,0.69,8.01,101.4718,3.055,4.253,21.53,0,109.9,13.42,3.82,287.2
"2009-02-20 00:12:30",645492,11.83,324.9,3.58,0.693,7.758,101.4718,3.055,4.255,21.43,0,109.9,13.42,3.82,286.9
"2009-02-20 00:13:00",645493,11.59,325.5,3.005,0.844,7.777,101.4797,3.075,4.273,21.4,0,109.9,13.42,3.84,287.5
"2009-02-20 00:13:30",645494,11.58,325.9,2.991,0.841,7.81,101.4895,3.1,4.273,21.34,0,109.9,13.42,3.86,287.9
"2009-02-20 00:14:00",645495,11.88,325.4,2.982,0.664,7.776,101.4915,3.105,4.278,21.33,0,109.9,13.42,3.87,287.4
"2009-02-20 00:14:30",645496,11.9,325.9,3.021,0.888,7.622,101.4915,3.105,4.28,21.31,0,109.9,13.42,3.87,287.9
"2009-02-20 00:15:00",645497,12.71,326.6,3.133,1.191,7.55,101.4915,3.105,4.284,21.3,0,109.9,13.42,3.87,288.6
"2009-02-20 00:15:30",645498,13.24,321.7,4.38,0.776,7.496,101.4895,3.1,4.294,21.62,0,109.9,13.41,3.86,283.7
"2009-02-20 00:16:00",645499,13.34,323,2.662,0.728,7.713,101.4695,3.049,4.271,21.81,0,109.9,13.41,3.81,285.0
"2009-02-20 00:16:30",645500,12.97,322.8,3.686,0.664,7.7,101.4576,3.019,4.259,21.65,0,109.9,13.41,3.78,284.8
"2009-02-20 00:17:00",645501,13.1,322.3,3.178,0.848,7.7,101.4525,3.006,4.265,22.04,0,109.9,13.41,3.77,284.3
"2009-02-20 00:17:30",645502,13.23,321.6,3.317,0.834,7.706,101.4285,2.944,4.238,22.08,0,109.9,13.41,3.71,283.6
"2009-02-20 00:18:00",645503,13.64,322.6,3.551,0.656,7.89,101.4237,2.932,4.22,22.07,0,109.9,13.41,3.69,284.6
"2009-02-20 00:18:30",645504,13.82,321.9,3.101,0.814,7.68,101.4099,2.897,4.177,22.26,0,109.9,13.41,3.66,283.9
"2009-02-20 00:19:00",645505,13.64,320.3,3.115,0.825,7.667,101.391,2.848,4.153,22.6,0,109.9,13.41,3.61,282.3
"2009-02-20 00:19:30",645506,13.45,320.7,2.395,0.85,7.807,101.3884,2.842,4.12,22.55,0,109.9,13.41,3.60,282.7
"2009-02-20 00:20:00",645507,14.43,319.6,4.086,0.685,7.928,101.3692,2.793,4.105,22.81,0,109.9,13.41,3.55,281.6
"2009-02-20 00:20:30",645508,13.68,319.1,3.606,0.885,7.838,101.3577,2.763,4.071,23.19,0,109.9,13.42,3.53,281.1
"2009-02-20 00:21:00",645509,14.71,320.8,2.828,1.034,7.767,101.3447,2.73,4.054,23.38,0,109.9,13.42,3.49,282.8
"2009-02-20 00:21:30",645510,15.21,320,3.034,0.942,7.762,101.3266,2.684,4.01,23.49,0,109.9,13.42,3.45,282.0
"2009-02-20 00:22:00",645511,14.96,323.4,2.526,0.703,8.13,101.3196,2.666,3.979,23.49,0,109.9,13.42,3.43,285.4
"2009-02-20 00:22:30",645512,14.52,319.8,3.705,0.795,8.1,101.301,2.619,3.962,23.41,0,109.9,13.42,3.38,281.8
"2009-02-20 00:23:00",645513,14.45,321.4,3.477,0.715,8.11,101.2973,2.61,3.898,23.45,0,109.9,13.42,3.37,283.4
"2009-02-20 00:23:30",645514,14.35,321.9,3.593,1.163,8.12,101.2759,2.555,3.877,23.7,0,109.9,13.42,3.32,283.9
"2009-02-20 00:24:00",645515,13.76,324.9,3.008,0.824,8.42,101.2728,2.547,3.852,23.33,0,109.9,13.43,3.31,286.9
"2009-02-20 00:24:30",645516,13.69,322.9,3.602,1.15,8.22,101.27,2.54,3.833,23.39,0,109.9,13.43,3.30,284.9
"2009-02-20 00:25:00",645517,13.15,322.6,4.551,0.679,8.36,101.2639,2.524,3.806,23.19,0,109.9,13.43,3.29,284.6
"2009-02-20 00:25:30",645518,12.63,320.8,4.119,0.837,8.28,101.2583,2.51,3.771,23.02,0,109.9,13.43,3.27,282.8
"2009-02-20 00:26:00",645519,13.63,325.5,2.948,0.698,8.24,101.2561,2.504,3.772,23.04,0,109.9,13.43,3.27,287.5
"2009-02-20 00:26:30",645520,12.99,324.4,3.591,1.028,8.09,101.2547,2.501,3.751,23.07,0,109.9,13.43,3.26,286.4
"2009-02-20 00:27:00",645521,13.4,324.5,3.74,0.944,8.04,101.2547,2.501,3.737,23,0,109.9,13.43,3.26,286.5
"2009-02-20 00:27:30",645522,14.32,323.9,3.374,1.169,8.04,101.2547,2.501,3.75,23.03,0,109.9,13.43,3.26,285.9
"2009-02-20 00:28:00",645523,14.57,323.5,2.776,1.106,8.18,101.2547,2.501,3.725,23.24,0,109.9,13.43,3.26,285.5
"2009-02-20 00:28:30",645524,14.51,323.3,3.065,0.832,8.01,101.2547,2.501,3.723,23.24,0,109.8,13.43,3.26,285.3
"2009-02-20 00:29:00",645525,14.48,321.4,3.195,1.287,8.11,101.2547,2.501,3.715,23.2,0,109.8,13.43,3.26,283.4
"2009-02-20 00:29:30",645526,15.12,324.9,4.177,0.698,8.14,101.2515,2.493,3.707,23.4,0,109.8,13.43,3.25,286.9
"2009-02-20 00:30:00",645527,13.38,329.3,3.394,0.799,8.72,101.251,2.491,3.698,22.82,0,109.8,13.43,3.25,291.3
"2009-02-20 00:30:30",645528,13.3,329.2,4.12,0.749,8.48,101.2544,2.5,3.699,22.45,0,109.9,13.43,3.26,291.2
"2009-02-20 00:31:00",645529,13.14,325.6,3.396,0.954,8.27,101.2547,2.501,3.713,22.56,0,109.8,13.43,3.26,287.6
"2009-02-20 00:31:30",645530,13.48,325.4,3.71,0.955,8.21,101.2547,2.501,3.717,22.72,0,109.8,13.43,3.26,287.4
"2009-02-20 00:32:00",645531,14,327.4,3.619,0.79,8.35,101.2547,2.501,3.72,22.77,0,109.8,13.43,3.26,289.4
"2009-02-20 00:32:30",645532,15.05,326,3.269,0.931,8.22,101.2547,2.501,3.716,22.9,0,109.8,13.43,3.26,288.0
"2009-02-20 00:33:00",645533,14.48,327.4,3.233,0.758,8.27,101.2547,2.501,3.706,22.83,0,109.8,13.43,3.26,289.4
"2009-02-20 00:33:30",645534,14.2,325.4,3.348,0.962,8.26,101.2547,2.501,3.698,22.73,0,109.8,13.43,3.26,287.4
"2009-02-20 00:34:00",645535,14.65,326.4,3.261,0.694,8.41,101.2513,2.492,3.709,22.87,0,109.8,13.43,3.25,288.4
"2009-02-20 00:34:30",645536,15.15,323.4,3.23,1.043,8.13,101.2332,2.446,3.692,23.19,0,109.8,13.43,3.21,285.4
"2009-02-20 00:35:00",645537,15.28,325.6,4.111,0.816,8.36,101.2207,2.414,3.683,23.24,0,109.8,13.43,3.17,287.6
"2009-02-20 00:35:30",645538,15.58,325.1,3.572,1.003,8.31,101.2207,2.414,3.663,23.22,0,109.8,13.43,3.17,287.1
"2009-02-20 00:36:00",645539,14.76,327.9,3.624,0.75,8.69,101.2157,2.401,3.655,23.29,0,109.8,13.43,3.16,289.9
"2009-02-20 00:36:30",645540,14.3,326.7,2.433,0.835,8.33,101.2035,2.37,3.648,23.25,0,109.8,13.44,3.13,288.7
"2009-02-20 00:37:00",645541,14.68,326.7,3.331,0.808,8.23,101.1928,2.343,3.622,23.37,0,109.8,13.44,3.10,288.7
"2009-02-20 00:37:30",645542,14.26,326.9,3.886,0.925,8.44,101.1926,2.342,3.603,23.27,0,109.8,13.45,3.10,288.9
"2009-02-20 00:38:00",645543,13.84,326.6,3.182,0.648,8.54,101.196,2.351,3.59,23.09,0,109.8,13.45,3.11,288.6
"2009-02-20 00:38:30",645544,13.31,328.5,3.503,0.913,8.39,101.2009,2.363,3.602,22.9,0,109.8,13.45,3.12,290.5
"2009-02-20 00:39:00",645545,13.92,326.8,3.758,1.022,8.32,101.2071,2.379,3.603,22.82,0,109.8,13.45,3.14,288.8
"2009-02-20 00:39:30",645546,13.82,329.6,4.164,0.866,8.43,101.21,2.387,3.597,22.63,0,109.8,13.45,3.15,291.6
"2009-02-20 00:40:00",645547,14.26,329.6,3.745,0.681,8.6,101.216,2.402,3.588,22.28,0,109.8,13.45,3.16,291.6
"2009-02-20 00:40:30",645548,14.35,328.4,3.692,0.864,8.37,101.236,2.453,3.604,22.11,0,109.8,13.45,3.21,290.4
"2009-02-20 00:41:00",645549,14.17,328.2,3.002,0.689,8.33,101.2482,2.484,3.638,22.26,0,109.8,13.46,3.24,290.2
"2009-02-20 00:41:30",645550,14.69,330.6,2.235,0.87,8.26,101.2519,2.494,3.645,22.45,0,109.8,13.46,3.25,292.6
"2009-02-20 00:42:00",645551,15.25,331.4,3.228,0.691,8.36,101.2537,2.498,3.638,22.67,0,109.8,13.46,3.26,293.4
"2009-02-20 00:42:30",645552,14.68,332.5,3.511,0.643,8.43,101.2491,2.487,3.641,22.48,0,109.8,13.46,3.25,294.5
"2009-02-20 00:43:00",645553,14.34,330.8,3.328,0.635,8.39,101.2514,2.492,3.644,22.2,0,109.8,13.46,3.25,292.8
"2009-02-20 00:43:30",645554,14.47,330.8,2.988,0.754,8.22,101.2455,2.477,3.647,22.48,0,109.7,13.46,3.24,292.8
"2009-02-20 00:44:00",645555,14.19,330.7,2.441,0.768,8.38,101.2353,2.451,3.639,22.46,0,109.7,13.46,3.21,292.7
"2009-02-20 00:44:30",645556,14.55,327.6,3.819,0.84,8.17,101.2226,2.419,3.634,22.84,0,109.7,13.46,3.18,289.6
"2009-02-20 00:45:00",645557,15.07,324.3,3.613,0.952,8.03,101.2212,2.415,3.624,23.28,0,109.7,13.46,3.18,286.3
"2009-02-20 00:45:30",645558,15.39,326.8,3.436,0.696,8.21,101.2149,2.399,3.61,23.49,0,109.7,13.46,3.16,288.8
"2009-02-20 00:46:00",645559,15.59,327.1,2.219,0.968,8.46,101.1923,2.342,3.596,23.28,0,109.7,13.46,3.10,289.1
"2009-02-20 00:46:30",645560,16.69,325.7,3.509,0.813,8.37,101.1872,2.329,3.599,23.21,0,109.7,13.46,3.09,287.7
"2009-02-20 00:47:00",645561,16.79,327.4,2.767,0.948,8.34,101.1872,2.329,3.577,23.29,0,109.7,13.46,3.09,289.4
"2009-02-20 00:47:30",645562,16.16,328.3,3.691,0.917,8.51,101.1742,2.295,3.572,23.49,0,109.7,13.46,3.06,290.3
"2009-02-20 00:48:00",645563,16.88,329.1,3.008,0.814,8.77,101.157,2.251,3.537,23.25,0,109.7,13.46,3.01,291.1
"2009-02-20 00:48:30",645564,16.12,330,3.418,0.717,8.74,101.1533,2.242,3.522,22.97,0,109.7,13.46,3.00,292.0
"2009-02-20 00:49:00",645565,15.96,327.6,3.294,0.926,8.63,101.1533,2.242,3.519,23.15,0,109.7,13.46,3.00,289.6
"2009-02-20 00:49:30",645566,16.37,326.5,3.147,0.843,8.65,101.1533,2.242,3.514,23.23,0,109.7,13.46,3.00,288.5
"2009-02-20 00:50:00",645567,15.82,329.7,3.206,0.545,8.87,101.1533,2.242,3.489,23,0,109.7,13.46,3.00,291.7
"2009-02-20 00:50:30",645568,15.98,330.9,3.143,0.965,8.82,101.1536,2.243,3.495,22.88,0,109.7,13.46,3.00,292.9
"2009-02-20 00:51:00",645569,15.78,330.9,3.299,0.938,8.8,101.1553,2.247,3.51,22.97,0,109.7,13.46,3.01,292.9
"2009-02-20 00:51:30",645570,16.04,327.3,3.872,0.874,8.49,101.1579,2.254,3.502,23.22,0,109.7,13.46,3.01,289.3
"2009-02-20 00:52:00",645571,16.87,330.2,2.187,0.785,8.56,101.1585,2.255,3.504,23.58,0,109.7,13.46,3.02,292.2
"2009-02-20 00:52:30",645572,16.45,329.3,3.735,0.786,8.57,101.1596,2.258,3.475,23.75,0,109.7,13.46,3.02,291.3
"2009-02-20 00:53:00",645573,15.88,329.1,3.685,0.793,8.85,101.1568,2.251,3.501,23.07,0,109.7,13.47,3.01,291.1
"2009-02-20 00:53:30",645574,16.63,329.1,3.514,0.708,8.62,101.162,2.264,3.464,23.06,0,109.7,13.47,3.02,291.1
"2009-02-20 00:54:00",645575,16.48,329.4,2.836,0.736,8.85,101.1583,2.255,3.457,23.26,0,109.7,13.47,3.01,291.4
"2009-02-20 00:54:30",645576,16.66,330,3.374,0.904,8.68,101.149,2.231,3.46,23.4,0,109.7,13.47,2.99,292.0
"2009-02-20 00:55:00",645577,16.87,333.2,3.523,0.708,8.8,101.147,2.226,3.466,23.12,0,109.7,13.47,2.99,295.2
"2009-02-20 00:55:30",645578,16.83,332.5,3.37,0.724,8.95,101.1606,2.261,3.463,22.75,0,109.7,13.47,3.02,294.5
"2009-02-20 00:56:00",645579,17.4,333.9,3.378,0.65,8.98,101.1708,2.287,3.474,22.82,0,109.7,13.47,3.05,295.9
"2009-02-20 00:56:30",645580,17.09,334.5,2.807,0.723,8.61,101.1728,2.292,3.478,23.14,0,109.7,13.47,3.05,296.5
"2009-02-20 00:57:00",645581,17.58,331.8,3.103,0.657,8.57,101.1654,2.273,3.481,23.32,0,109.7,13.48,3.03,293.8
"2009-02-20 00:57:30",645582,17.94,332.3,3.732,0.933,8.8,101.1465,2.225,3.484,23.68,0,109.7,13.48,2.98,294.3
"2009-02-20 00:58:00",645583,17.46,334.1,4.076,0.894,9.18,101.1448,2.22,3.473,23.22,0,109.7,13.48,2.98,296.1
"2009-02-20 00:58:30",645584,16.99,333.3,3.158,0.872,8.93,101.148,2.228,3.463,23.05,0,109.7,13.48,2.99,295.3
"2009-02-20 00:59:00",645585,16.31,336.5,3.134,0.895,9.09,101.1593,2.257,3.465,22.8,0,109.7,13.48,3.02,298.5
"2009-02-20 00:59:30",645586,16.83,334.8,3.53,0.797,8.86,101.1788,2.307,3.466,22.43,0,109.7,13.48,3.07,296.8
"2009-02-20 01:00:00",645587,16.68,334.2,2.422,0.721,8.98,101.1802,2.311,3.481,22.45,0,109.7,13.48,3.07,296.2
"2009-02-20 01:00:30",645588,16.76,334.3,2.982,0.823,8.82,101.1847,2.322,3.504,22.26,0,109.7,13.48,3.08,296.3
"2009-02-20 01:01:00",645589,16.68,334.7,4.307,0.726,8.98,101.2006,2.363,3.506,22.36,0,109.7,13.48,3.12,296.7
"2009-02-20 01:01:30",645590,14.65,335.2,4.58,0.883,8.96,101.2165,2.403,3.536,22.12,0,109.7,13.48,3.16,297.2
"2009-02-20 01:02:00",645591,14.6,337.7,2.979,0.83,9.11,101.2213,2.415,3.543,21.86,0,109.7,13.48,3.18,299.7
"2009-02-20 01:02:30",645592,15.08,333.7,3.999,0.726,8.45,101.2346,2.449,3.577,21.9,0,109.7,13.49,3.21,295.7
"2009-02-20 01:03:00",645593,15,332.5,4.171,0.844,8.41,101.2414,2.467,3.602,22.18,0,109.7,13.49,3.23,294.5
"2009-02-20 01:03:30",645594,16.43,335.1,3.232,0.837,8.47,101.2428,2.47,3.615,22.44,0,109.7,13.49,3.23,297.1
"2009-02-20 01:04:00",645595,15.36,336.9,2.46,0.839,8.61,101.2465,2.48,3.621,22.31,0,109.7,13.49,3.24,298.9
"2009-02-20 01:04:30",645596,15.48,333.5,3.295,0.739,8.39,101.2414,2.467,3.627,22.53,0,109.7,13.48,3.23,295.5
"2009-02-20 01:05:00",645597,14.83,335.7,2.974,0.984,8.68,101.2371,2.456,3.654,22.37,0,109.7,13.48,3.22,297.7
"2009-02-20 01:05:30",645598,14.18,336.2,4.139,0.91,8.69,101.2411,2.466,3.656,21.86,0,109.7,13.48,3.23,298.2
"2009-02-20 01:06:00",645599,14.78,333.5,3.019,0.812,8.49,101.251,2.491,3.648,22.05,0,109.7,13.48,3.25,295.5
"2009-02-20 01:06:30",645600,14.86,331.7,4.046,0.807,8.33,101.2442,2.474,3.646,22.33,0,109.7,13.48,3.23,293.7
"2009-02-20 01:07:00",645601,13.28,333.1,4.414,0.739,8.59,101.2434,2.472,3.655,22.01,0,109.7,13.48,3.23,295.1
"2009-02-20 01:07:30",645602,13.34,333.5,4.63,0.985,8.46,101.251,2.491,3.661,21.83,0,109.7,13.48,3.25,295.5
"2009-02-20 01:08:00",645603,13.89,332.2,4.107,0.787,8.51,101.2552,2.502,3.665,21.85,0,109.7,13.48,3.26,294.2
"2009-02-20 01:08:30",645604,14,331.9,3.329,0.872,8.19,101.2555,2.503,3.698,22.09,0,109.7,13.48,3.26,293.9
"2009-02-20 01:09:00",645605,13.83,333.2,3.079,0.896,8.35,101.2527,2.496,3.687,22.19,0,109.7,13.48,3.26,295.2
"2009-02-20 01:09:30",645606,13.28,330.1,3.531,0.938,8.37,101.2535,2.498,3.695,21.85,0,109.7,13.49,3.26,292.1
"2009-02-20 01:10:00",645607,13.59,333.3,3.426,0.66,8.41,101.2552,2.502,3.675,21.8,0,109.7,13.49,3.26,295.3
"2009-02-20 01:10:30",645608,14.73,331,4.318,0.704,8.01,101.255,2.501,3.697,22.16,0,109.7,13.49,3.26,293.0
"2009-02-20 01:11:00",645609,14.6,331.5,4.322,0.683,8.22,101.2499,2.488,3.706,22.28,0,109.7,13.49,3.25,293.5
"2009-02-20 01:11:30",645610,14.4,332,3.806,1.049,8.43,101.2471,2.481,3.69,22.05,0,109.7,13.49,3.24,294.0
"2009-02-20 01:12:00",645611,14.61,330.6,2.716,0.884,8.49,101.2485,2.485,3.68,21.92,0,109.7,13.49,3.25,292.6
"2009-02-20 01:12:30",645612,16.18,331.8,3.243,0.655,8.25,101.2483,2.484,3.676,22.4,0,109.7,13.49,3.25,293.8
"2009-02-20 01:13:00",645613,15.57,331.5,3.723,0.671,8.57,101.2412,2.466,3.686,22.35,0,109.7,13.49,3.23,293.5
"2009-02-20 01:13:30",645614,15.01,330.7,3.769,0.792,8.57,101.2373,2.456,3.674,22.12,0,109.7,13.49,3.22,292.7
"2009-02-20 01:14:00",645615,15.38,331.2,3.242,0.698,8.59,101.2373,2.456,3.686,22.27,0,109.7,13.49,3.22,293.2
"2009-02-20 01:14:30",645616,14.84,331.7,3.065,0.958,8.52,101.2347,2.45,3.674,22.22,0,109.7,13.49,3.21,293.7
"2009-02-20 01:15:00",645617,15.71,331.9,4.326,0.854,8.37,101.2367,2.455,3.684,22.61,0,109.7,13.49,3.22,293.9
"2009-02-20 01:15:30",645618,14.18,335.4,4.574,1.043,8.5,101.2385,2.459,3.65,22.47,0,109.7,13.49,3.22,297.4
"2009-02-20 01:16:00",645619,15.64,328.7,3.606,0.848,8.52,101.239,2.461,3.656,22.43,0,109.7,13.49,3.22,290.7
"2009-02-20 01:16:30",645620,15.17,332.7,4.239,0.872,8.35,101.23,2.438,3.656,22.54,0,109.7,13.5,3.20,294.7
"2009-02-20 01:17:00",645621,14.36,334.4,4.083,0.738,8.59,101.2243,2.423,3.652,22.31,0,109.7,13.5,3.18,296.4
"2009-02-20 01:17:30",645622,13.87,332.3,3.812,0.659,8.63,101.228,2.433,3.63,22.21,0,109.7,13.5,3.19,294.3
"2009-02-20 01:18:00",645623,14.77,331.7,2.409,0.822,8.48,101.2382,2.459,3.636,22.23,0,109.7,13.5,3.22,293.7
"2009-02-20 01:18:30",645624,13.9,332.7,4.149,0.655,8.44,101.2357,2.452,3.629,22.29,0,109.7,13.5,3.21,294.7
"2009-02-20 01:19:00",645625,13.98,331.1,4.156,0.589,8.41,101.2419,2.468,3.649,22.18,0,109.7,13.5,3.23,293.1
"2009-02-20 01:19:30",645626,14,332.8,3.638,0.672,8.39,101.2465,2.48,3.64,22.13,0,109.7,13.5,3.24,294.8
"2009-02-20 01:20:00",645627,13.73,333.1,3.428,0.498,8.62,101.2476,2.483,3.651,21.99,0,109.6,13.5,3.24,295.1
"2009-02-20 01:20:30",645628,13.45,330.9,4.258,0.946,8.14,101.2471,2.481,3.649,22.09,0,109.7,13.49,3.24,292.9
"2009-02-20 01:21:00",645629,14.14,333.1,4.715,0.788,8.21,101.2479,2.483,3.659,22.27,0,109.7,13.49,3.24,295.1
"2009-02-20 01:21:30",645630,14.88,328.5,4.146,0.747,8.17,101.2488,2.486,3.663,22.26,0,109.7,13.49,3.25,290.5
"2009-02-20 01:22:00",645631,14.35,329,2.844,0.875,8.4,101.2476,2.483,3.654,22.38,0,109.7,13.49,3.24,291.0
"2009-02-20 01:22:30",645632,14.21,330,4.002,0.652,8.26,101.2457,2.478,3.652,22.28,0,109.6,13.49,3.24,292.0
"2009-02-20 01:23:00",645633,13.88,330.8,3.858,0.773,8.42,101.2409,2.465,3.664,22.21,0,109.7,13.49,3.23,292.8
"2009-02-20 01:23:30",645634,13.61,329.5,4.176,0.856,8.39,101.2463,2.479,3.662,22.05,0,109.7,13.49,3.24,291.5
"2009-02-20 01:24:00",645635,14.26,329.3,3.06,0.702,8.29,101.2474,2.482,3.657,22.29,0,109.7,13.49,3.24,291.3
"2009-02-20 01:24:30",645636,14.61,329.9,3.149,0.812,8.13,101.2381,2.458,3.656,22.55,0,109.7,13.49,3.22,291.9
"2009-02-20 01:25:00",645637,14.83,331.7,5.56,0.763,8.23,101.2245,2.424,3.639,22.79,0,109.6,13.49,3.18,293.7
"2009-02-20 01:25:30",645638,14.55,329.7,5.281,0.914,8.26,101.2194,2.411,3.636,22.86,0,109.7,13.5,3.17,291.7
"2009-02-20 01:26:00",645639,14.98,327,3.202,0.711,8.33,101.2214,2.416,3.623,22.97,0,109.7,13.5,3.18,289.0
"2009-02-20 01:26:30",645640,13.93,328.7,4.141,0.915,8.51,101.2203,2.413,3.611,22.65,0,109.7,13.5,3.17,290.7
"2009-02-20 01:27:00",645641,13.67,330,3.047,0.891,8.47,101.2211,2.415,3.612,22.17,0,109.7,13.5,3.18,292.0
"2009-02-20 01:27:30",645642,13.99,328.1,3.066,0.844,8.35,101.2217,2.416,3.621,22.31,0,109.7,13.5,3.18,290.1
"2009-02-20 01:28:00",645643,14.38,331.1,3.758,0.591,8.63,101.222,2.417,3.615,22.39,0,109.7,13.5,3.18,293.1
"2009-02-20 01:28:30",645644,14.28,332.2,3.214,0.669,8.34,101.222,2.417,3.603,22.21,0,109.7,13.5,3.18,294.2
"2009-02-20 01:29:00",645645,14.35,329.3,3.824,0.592,8.45,101.222,2.417,3.616,22.12,0,109.6,13.5,3.18,291.3
"2009-02-20 01:29:30",645646,14.55,328.7,3.811,0.685,8.35,101.222,2.417,3.621,22.07,0,109.7,13.5,3.18,290.7
"2009-02-20 01:30:00",645647,14.29,331.4,3.458,0.766,8.64,101.222,2.417,3.613,22.03,0,109.6,13.5,3.18,293.4
"2009-02-20 01:30:30",645648,14.2,331.2,4.053,0.76,8.44,101.2248,2.424,3.621,21.93,0,109.6,13.51,3.18,293.2
"2009-02-20 01:31:00",645649,14.75,327.4,3.68,0.705,8.25,101.2245,2.424,3.65,22.17,0,109.6,13.51,3.18,289.4
"2009-02-20 01:31:30",645650,15.04,329.1,3.616,0.693,8.22,101.222,2.417,3.618,22.47,0,109.6,13.51,3.18,291.1
"2009-02-20 01:32:00",645651,14.73,329.8,3.35,0.782,8.44,101.222,2.417,3.627,22.44,0,109.6,13.51,3.18,291.8
"2009-02-20 01:32:30",645652,15.06,327,4.118,0.5,8.25,101.222,2.417,3.611,22.6,0,109.6,13.51,3.18,289.0
"2009-02-20 01:33:00",645653,15.02,328.5,3.679,0.68,8.3,101.2042,2.372,3.607,22.84,0,109.6,13.51,3.13,290.5
"2009-02-20 01:33:30",645654,14.66,329.8,3.475,0.766,8.33,101.1883,2.331,3.599,22.61,0,109.6,13.51,3.09,291.8
"2009-02-20 01:34:00",645655,14.48,328.8,3.375,0.54,8.46,101.188,2.331,3.567,22.59,0,109.6,13.51,3.09,290.8
"2009-02-20 01:34:30",645656,14.6,327,3.704,0.836,8.23,101.188,2.331,3.579,22.9,0,109.6,13.51,3.09,289.0
"2009-02-20 01:35:00",645657,14.71,324.2,4.391,0.754,8.21,101.188,2.331,3.566,23.14,0,109.6,13.51,3.09,286.2
"2009-02-20 01:35:30",645658,14.07,328,4.115,0.685,8.26,101.177,2.302,3.552,23.09,0,109.6,13.51,3.06,290.0
"2009-02-20 01:36:00",645659,14.44,329.4,3.801,0.631,8.49,101.1654,2.273,3.534,22.77,0,109.6,13.51,3.03,291.4
"2009-02-20 01:36:30",645660,14.16,328.2,3.597,0.685,8.32,101.1623,2.265,3.512,22.59,0,109.6,13.51,3.02,290.2
"2009-02-20 01:37:00",645661,13.89,329.1,3.863,0.781,8.31,101.1629,2.266,3.525,22.72,0,109.6,13.51,3.03,291.1
"2009-02-20 01:37:30",645662,14.23,328.9,4.248,0.686,8.37,101.1714,2.288,3.521,22.42,0,109.6,13.51,3.05,290.9
"2009-02-20 01:38:00",645663,14.21,328.8,3.09,0.662,8.35,101.1753,2.298,3.505,22.61,0,109.6,13.51,3.06,290.8
"2009-02-20 01:38:30",645664,14.65,328.1,4.109,0.717,8.25,101.1682,2.28,3.514,22.8,0,109.6,13.51,3.04,290.1
"2009-02-20 01:39:00",645665,14.73,324.3,3.763,0.693,8.23,101.1561,2.249,3.501,23.06,0,109.6,13.51,3.01,286.3
"2009-02-20 01:39:30",645666,14.28,328.9,3.584,0.763,8.49,101.1541,2.244,3.491,22.76,0,109.6,13.51,3.00,290.9
"2009-02-20 01:40:00",645667,14.71,330.5,2.424,0.764,8.53,101.1541,2.244,3.493,22.55,0,109.6,13.51,3.00,292.5
"2009-02-20 01:40:30",645668,14.34,329.6,4.323,0.885,8.41,101.1541,2.244,3.486,22.68,0,109.6,13.51,3.00,291.6
"2009-02-20 01:41:00",645669,14.11,332.2,3.28,0.738,8.49,101.1547,2.245,3.492,22.14,0,109.6,13.51,3.01,294.2
"2009-02-20 01:41:30",645670,14.09,329,4.755,0.591,8.32,101.1646,2.271,3.492,22.25,0,109.6,13.51,3.03,291.0
"2009-02-20 01:42:00",645671,14.26,327.1,3.505,0.657,8.22,101.1581,2.254,3.504,22.85,0,109.6,13.51,3.01,289.1
"2009-02-20 01:42:30",645672,13.66,328.5,3.088,0.767,8.11,101.1541,2.244,3.478,23.03,0,109.6,13.52,3.00,290.5
"2009-02-20 01:43:00",645673,14.22,329.1,4.489,0.654,8.29,101.1541,2.244,3.493,22.78,0,109.6,13.52,3.00,291.1
"2009-02-20 01:43:30",645674,14.22,329.5,4.208,0.627,8.23,101.1541,2.244,3.468,22.43,0,109.6,13.52,3.00,291.5
"2009-02-20 01:44:00",645675,14.78,326.6,2.134,0.809,8.16,101.1541,2.244,3.472,22.8,0,109.6,13.52,3.00,288.6
"2009-02-20 01:44:30",645676,15.38,325.9,3.434,0.702,8.1,101.1487,2.23,3.46,23.06,0,109.6,13.52,2.99,287.9
"2009-02-20 01:45:00",645677,15.3,326.3,3.963,0.588,8.34,101.1405,2.209,3.457,22.88,0,109.6,13.52,2.97,288.3
"2009-02-20 01:45:30",645678,14.65,326,3.364,0.645,8.4,101.1368,2.2,3.461,22.71,0,109.6,13.52,2.96,288.0
"2009-02-20 01:46:00",645679,14.31,326.9,2.925,0.528,8.58,101.1363,2.199,3.446,22.6,0,109.6,13.52,2.96,288.9
"2009-02-20 01:46:30",645680,14.71,329.1,4.002,0.727,8.48,101.1383,2.204,3.433,22.5,0,109.6,13.52,2.96,291.1
"2009-02-20 01:47:00",645681,14.13,331.3,3.275,0.625,8.39,101.1456,2.222,3.451,22.36,0,109.6,13.52,2.98,293.3
"2009-02-20 01:47:30",645682,14.19,332.4,3.507,0.885,8.4,101.1521,2.239,3.462,22.35,0,109.6,13.52,3.00,294.4
"2009-02-20 01:48:00",645683,14.18,332.4,2.861,0.757,8.53,101.1541,2.244,3.459,22.27,0,109.6,13.52,3.00,294.4
"2009-02-20 01:48:30",645684,14.41,328.4,3.049,0.839,8.18,101.1555,2.248,3.457,22.36,0,109.6,13.52,3.01,290.4
"2009-02-20 01:49:00",645685,14.26,328.1,2.495,0.874,8.09,101.1564,2.25,3.465,22.57,0,109.6,13.52,3.01,290.1
"2009-02-20 01:49:30",645686,14.49,328.5,2.913,0.774,8.26,101.1553,2.247,3.46,22.5,0,109.6,13.52,3.01,290.5